Change the Weather History Date:

Saturday, June 22, 2013

  Actual Average Record
Temperature  
Mean Temperature 62 °F -  
Max Temperature 64 °F 73 °F 86 °F (2003)
Min Temperature 59 °F 55 °F 48 °F (1999)
Degree Days  
Heating Degree Days 4    
Growing Degree Days 12 (Base 50)    
Moisture  
Dew Point 55 °F    
Average Humidity 78    
Maximum Humidity 88    
Minimum Humidity 63    
Precipitation  
Precipitation 0.00 in - - ()
Sea Level Pressure  
Sea Level Pressure 29.98 in    
Wind  
Wind Speed 13 mph ()    
Max Wind Speed 23 mph    
Max Gust Speed 34 mph    
Visibility 6.2 miles    
Events Rain    
Averages and records for this station are not official NWS values.
T = Trace of Precipitation, MM = Missing Value Source: Averaged Metar Reports

Daily Weather History Graph

Daily Weather History Graph

Search for Another Location

Airport or City:

Trip Planner

Search our weather history database for the weather conditions in past years. The results will help you decide how hot, cold, wet, or windy it might be!

Date:

Astronomy

Jun. 22, 2013 Rise Set
Actual Time 5:45 AM CEST 9:58 PM CEST
Civil Twilight 5:02 AM CEST 10:40 PM CEST
Nautical Twilight 4:01 AM CEST 11:42 PM CEST
Astronomical Twilight 2:24 AM CEST 1:19 AM CEST
Moon 8:50 PM CEST (6/22) 4:49 AM CEST (6/22)
Length of Visible Light 17h 38m
Length of Day
16h 12m
Waxing Gibbous, 98% of the Moon is Illuminated
Jun 22
Waxing Gibbous
Jun 23
Full
Jun 30
Last Quarter
Jul 8
New
Jul 16
First Quarter

Hourly Weather History & Observations

Time (CEST) Temp. Dew Point Humidity Pressure Visibility Wind Dir Wind Speed Gust Speed Precip Events Conditions
12:00 AM 62.6 °F 57.2 °F 82% 30.04 in 6.2 mi SSW 11.5 mph - N/A   Mostly Cloudy
12:30 AM 62.6 °F 57.2 °F 82% 30.04 in 6.2 mi SSW 10.4 mph - N/A   Mostly Cloudy
1:00 AM 62.6 °F 57.2 °F 82% 30.04 in 6.2 mi SSW 11.5 mph - N/A   Mostly Cloudy
1:30 AM 62.6 °F 57.2 °F 82% 30.04 in 6.2 mi SW 13.8 mph - N/A   Overcast
2:00 AM 62.6 °F 57.2 °F 82% 30.04 in 6.2 mi SSW 8.1 mph - N/A   Overcast
2:30 AM 62.6 °F 57.2 °F 82% 30.04 in 6.2 mi SW 6.9 mph - N/A   Mostly Cloudy
3:00 AM 62.6 °F 57.2 °F 82% 30.04 in 6.2 mi SW 5.8 mph - N/A   Overcast
3:30 AM 62.6 °F 57.2 °F 82% 30.01 in 6.2 mi SW 5.8 mph - N/A   Mostly Cloudy
4:00 AM 60.8 °F 57.2 °F 88% 30.01 in 6.2 mi SW 9.2 mph - N/A   Mostly Cloudy
4:30 AM 60.8 °F 57.2 °F 88% 30.01 in 6.2 mi SW 10.4 mph - N/A   Mostly Cloudy
5:00 AM 60.8 °F 57.2 °F 88% 30.01 in 6.2 mi SSW 8.1 mph - N/A   Scattered Clouds
5:30 AM 60.8 °F 57.2 °F 88% 30.01 in 6.2 mi SSW 10.4 mph - N/A   Mostly Cloudy
6:00 AM 60.8 °F 57.2 °F 88% 30.01 in 6.2 mi SSW 8.1 mph - N/A   Mostly Cloudy
6:30 AM 60.8 °F 57.2 °F 88% 30.01 in 6.2 mi SSW 15.0 mph - N/A   Scattered Clouds
7:00 AM 59.0 °F 53.6 °F 82% 30.01 in 6.2 mi SSW 17.3 mph - N/A   Scattered Clouds
7:30 AM 59.0 °F 53.6 °F 82% 30.01 in 6.2 mi SSW 18.4 mph - N/A   Partly Cloudy
8:00 AM 60.8 °F 51.8 °F 72% 30.01 in 6.2 mi SSW 12.7 mph - N/A   Scattered Clouds
8:30 AM 59.0 °F 50.0 °F 72% 30.01 in 6.2 mi SW 18.4 mph - N/A   Mostly Cloudy
9:00 AM 60.8 °F 51.8 °F 72% 30.01 in 6.2 mi SW 17.3 mph - N/A   Mostly Cloudy
9:30 AM 60.8 °F 50.0 °F 68% 30.01 in 6.2 mi SSW 19.6 mph - N/A   Mostly Cloudy
10:00 AM 60.8 °F 50.0 °F 68% 30.01 in 6.2 mi SW 19.6 mph - N/A   Mostly Cloudy
10:30 AM 62.6 °F 50.0 °F 63% 30.01 in 6.2 mi SW 20.7 mph - N/A   Scattered Clouds
11:00 AM 62.6 °F 50.0 °F 63% 30.01 in 6.2 mi SW 20.7 mph - N/A   Mostly Cloudy
11:30 AM 62.6 °F 51.8 °F 68% 29.98 in 6.2 mi SSW 18.4 mph - N/A   Mostly Cloudy
12:00 PM 62.6 °F 51.8 °F 68% 29.98 in 6.2 mi SSW 18.4 mph - N/A   Scattered Clouds
12:30 PM 62.6 °F 50.0 °F 63% 29.98 in 6.2 mi SW 20.7 mph - N/A   Mostly Cloudy
1:00 PM 62.6 °F 50.0 °F 63% 29.98 in 6.2 mi SSW 20.7 mph - N/A Rain Light Rain
1:30 PM 59.0 °F 53.6 °F 82% 29.98 in 5.6 mi SSW 20.7 mph - N/A Rain Light Rain
2:00 PM 59.0 °F 53.6 °F 82% 29.98 in 6.2 mi SSW 19.6 mph - N/A Rain Light Rain
2:30 PM 60.8 °F 53.6 °F 77% 29.98 in 6.2 mi SSW 21.9 mph - N/A Rain Light Rain
3:00 PM 60.8 °F 53.6 °F 77% 29.98 in 6.2 mi SSW 19.6 mph - N/A   Mostly Cloudy
3:30 PM 60.8 °F 53.6 °F 77% 29.98 in 6.2 mi SSW 20.7 mph - N/A Rain Light Rain
4:00 PM 60.8 °F 55.4 °F 82% 29.95 in 6.2 mi SSW 18.4 mph - N/A Rain Light Rain
4:30 PM 60.8 °F 55.4 °F 82% 29.95 in 6.2 mi SSW 23.0 mph - N/A Rain Light Rain
5:00 PM 60.8 °F 55.4 °F 82% 29.95 in 6.2 mi SSW 20.7 mph 32.2 mph N/A   Mostly Cloudy
5:30 PM 62.6 °F 55.4 °F 77% 29.95 in 6.2 mi SSW 20.7 mph - N/A   Mostly Cloudy
6:00 PM 62.6 °F 55.4 °F 77% 29.92 in 6.2 mi SSW 18.4 mph - N/A   Mostly Cloudy
6:30 PM 62.6 °F 55.4 °F 77% 29.92 in 6.2 mi SSW 17.3 mph - N/A   Mostly Cloudy
7:00 PM 62.6 °F 55.4 °F 77% 29.92 in 6.2 mi SSW 21.9 mph - N/A   Mostly Cloudy
7:30 PM 62.6 °F 55.4 °F 77% 29.92 in 6.2 mi SSW 20.7 mph - N/A   Mostly Cloudy
8:00 PM 62.6 °F 55.4 °F 77% 29.89 in 6.2 mi SSW 21.9 mph - N/A   Mostly Cloudy
8:30 PM 62.6 °F 55.4 °F 77% 29.89 in 6.2 mi SSW 19.6 mph - N/A   Mostly Cloudy
9:00 PM 64.4 °F 55.4 °F 73% 29.89 in 6.2 mi SSW 23.0 mph - N/A   Scattered Clouds
9:30 PM 62.6 °F 57.2 °F 82% 29.89 in 6.2 mi SSW 21.9 mph 34.5 mph N/A   Mostly Cloudy
10:00 PM 62.6 °F 57.2 °F 82% 29.92 in 6.2 mi SSW 18.4 mph - N/A   Mostly Cloudy
10:30 PM 62.6 °F 55.4 °F 77% 29.92 in 6.2 mi SW 17.3 mph - N/A   Mostly Cloudy
11:00 PM 62.6 °F 53.6 °F 72% 29.92 in 6.2 mi WSW 18.4 mph - N/A   Mostly Cloudy
11:30 PM 60.8 °F 50.0 °F 68% 29.92 in 6.2 mi WSW 20.7 mph - N/A   Scattered Clouds